Regional Weather Roundup
Issued by NWS

Home | Current Version | Previous Version | Text Only | Print | Product List | Glossary On
Versions: 1 2 3 4 5 6 7 8 9 10 11 12 13 14 15 16 17 18 19 20 21 22 23 24 25 26 27 28 29 30 31 32 33 34 35 36 37 38 39 40 41 42 43 44 45 46 47 48 49 50
282
ASUS45 KREV 302010
RWRNV
NEVADA REGIONAL WEATHER ROUNDUP
NATIONAL WEATHER SERVICE RENO NV
100 PM PDT THU MAR 30 2017

NOTE: "FAIR" INDICATES FEW OR NO CLOUDS BELOW 12,000 FEET WITH NO
SIGNIFICANT WEATHER AND/OR OBSTRUCTIONS TO VISIBILITY.

NVZ001-003-004-302100-
WESTERN NEVADA

CITY           SKY/WX    TMP DP  RH WIND       PRES   REMARKS
RENO           LGT RAIN  44  24  45 N32G43    30.00R
CARSON CITY    FAIR      41  23  48 N16G29    30.01R
MINDEN         PTSUNNY   41  25  52 N15G21    30.00R
FALLON         LGT SNOW  37  31  78 NW21G28   29.97R VSB 3/4
LOVELOCK       CLOUDY    44  27  51 NW30G40   29.94R HAZE
HAWTHORNE      PTSUNNY   43  27  52 NW30G38   29.94F
$$

NVZ002-CAZ072-073-302100-
NORTHERN AND CENTRAL SIERRA

CITY           SKY/WX    TMP DP  RH WIND       PRES   REMARKS
S. LAKE TAHOE  CLOUDY    34  21  59 N10G24    29.99R
TRUCKEE        PTSUNNY   34  25  69 N16G23    30.00S
SQUAW VLY 8000   N/A     23  21  93 VRB16       N/A
MAMMOTH LAKES  FAIR      39  10  29 W35G46    29.87R
BRIDGEPORT       N/A     36  19  50 MISG      29.89F
$$

NVZ030-031-036-302100-
NORTHERN NEVADA

CITY           SKY/WX    TMP DP  RH WIND       PRES   REMARKS
ELKO           CLOUDY    37  28  70 N10       29.73R
WINNEMUCCA       N/A    N/A N/A N/A MISG      29.90R
WENDOVER       CLOUDY    50  43  76 E14       29.59F
$$

NVZ035-037-302100-
CENTRAL NEVADA

CITY           SKY/WX    TMP DP  RH WIND       PRES   REMARKS
ELY            LGT RAIN  38  33  82 W31G39    29.61R
EUREKA           N/A     32  26  78 N29G39    29.74R
$$

NVZ013-014-302100-
SOUTH CENTRAL NEVADA

CITY           SKY/WX    TMP DP  RH WIND       PRES   REMARKS
TONOPAH        CLOUDY    39  24  55 NW38G48   29.76S
$$

NVZ017-020-022-302100-
SOUTHERN NEVADA

CITY           SKY/WX    TMP DP  RH WIND       PRES   REMARKS
LAS VEGAS      PTSUNNY   79  29  16 SW30G44   29.50F
N. LAS VEGAS   MOSUNNY   81  31  16 W26G43    29.46F
NELLIS AFB     MOSUNNY   79  34  19 SW25G33   29.49F
HENDERSON      PTSUNNY   77  33  20 SW36G47   29.56F HAZE
MERCURY        SUNNY     74  32  21 SW28G44   29.49F
$$




USA.gov is the U.S. government's official web portal to all federal, state and local government web resources and services.